Tracking 30995 objects as of 5-Jul-2025
HD Live streaming from Space Station
objects crossing your sky now

STARLINK 1060

Track STARLINK 1060 now!
10-day predictions
STARLINK 1060 is classified as:


NORAD ID: 44765
Int'l Code: 2019-074BE
Perigee: 553.8 km
Apogee: 555.0 km
Inclination: 53.1 °
Period: 95.6 minutes
Semi major axis: 6925 km
RCS: Unknown
Launch date: November 11, 2019
Source: United States (US)
Launch site: AIR FORCE EASTERN TEST RANGE (AFETR)
Your satellite tracking list
Your tracking list is empty




NASA's NSSDC Master Catalog

Two Line Element Set (TLE):
1 44765U 19074BE  25186.40239507  .00001561  00000-0  12371-3 0  9999
2 44765  53.0537 236.7335 0000869  72.8537 287.2547 15.06381415311199
Source of the keplerian elements: AFSPC